Weather History for KOZR - March, 2014

Change the Weather History Date:

Wednesday, March 5, 2014

  Actual Average Record
Temperature  
Mean Temperature 50 °F -  
Max Temperature 61 °F 65 °F 80 °F (1997)
Min Temperature 40 °F 43 °F 21 °F (2002)
Degree Days  
Heating Degree Days 14    
Moisture  
Dew Point 41 °F    
Average Humidity 87    
Maximum Humidity 100    
Minimum Humidity 57    
Precipitation  
Precipitation 0.00 in - - ()
Sea Level Pressure  
Sea Level Pressure 30.09 in    
Wind  
Wind Speed 7 mph (NE)    
Max Wind Speed 13 mph    
Max Gust Speed -    
Visibility 10 miles    
Events Rain    
Averages and records for this station are not official NWS values.
T = Trace of Precipitation, MM = Missing Value Source: NWS Daily Summary

Daily Weather History Graph

Daily Weather History Graph

Search for Another Location

Airport or City:

Trip Planner

Search our weather history database for the weather conditions in past years. The results will help you decide how hot, cold, wet, or windy it might be!

Date:

Astronomy

Mar. 05, 2014 Rise Set
Actual Time 6:04 AM CST 5:44 PM CST
Civil Twilight 5:40 AM CST 6:08 PM CST
Nautical Twilight 5:12 AM CST 6:36 PM CST
Astronomical Twilight 4:44 AM CST 7:04 PM CST
Moon 8:49 AM CST (3/5) 10:31 PM CST (3/5)
Length of Visible Light 12h 27m
Length of Day
11h 39m
Waxing Crescent, 23% of the Moon is Illuminated
Mar 5
Waxing Crescent
Mar 8
First Quarter
Mar 16
Full
Mar 23
Last Quarter
Mar 30
New

Hourly Weather History & Observations

Time (CST) Temp. Windchill Dew Point Humidity Pressure Visibility Wind Dir Wind Speed Gust Speed Precip Events Conditions
12:49 AM 41.0 °F 37.1 °F 41.0 °F 100% 30.10 in 10.0 mi NE 5.8 mph - N/A   Light Drizzle
12:58 AM 41.7 °F 38.0 °F 40.1 °F 94% 30.12 in 10.0 mi ENE 5.8 mph - 0.00 in   Light Drizzle
12:59 AM 41.0 °F 37.1 °F 41.0 °F 100% 30.10 in 10.0 mi ENE 5.8 mph - N/A   Overcast
1:04 AM 41.0 °F 36.4 °F 41.0 °F 100% 30.10 in 10.0 mi East 6.9 mph - N/A Rain Light Rain
1:09 AM 41.0 °F 35.8 °F 41.0 °F 100% 30.09 in 10.0 mi East 8.1 mph - N/A   Light Drizzle
1:52 AM 41.0 °F 37.1 °F 39.2 °F 93% 30.11 in 10.0 mi NNE 5.8 mph - N/A   Overcast
1:58 AM 41.5 °F 37.1 °F 39.6 °F 93% 30.10 in 10.0 mi ENE 6.9 mph - 0.00 in   Overcast
2:13 AM 41.0 °F 37.1 °F 39.2 °F 93% 30.08 in 10.0 mi NE 5.8 mph - N/A   Overcast
2:58 AM 41.5 °F 36.4 °F 39.6 °F 93% 30.12 in 10.0 mi NE 8.1 mph - N/A   Overcast
3:28 AM 41.0 °F 36.4 °F 39.2 °F 93% 30.09 in 10.0 mi NE 6.9 mph - N/A   Overcast
3:33 AM 41.0 °F 35.2 °F 39.2 °F 93% 30.10 in 10.0 mi NNE 9.2 mph - N/A   Overcast
3:53 AM 41.0 °F 35.8 °F 39.2 °F 93% 30.08 in 10.0 mi ENE 8.1 mph - N/A   Overcast
3:58 AM 41.0 °F 35.2 °F 39.2 °F 93% 30.09 in 10.0 mi ENE 9.2 mph - N/A   Overcast
3:59 AM 41.0 °F 35.2 °F 39.2 °F 93% 30.08 in 10.0 mi ENE 9.2 mph - N/A   Overcast
4:07 AM 41.0 °F 35.2 °F 39.2 °F 93% 30.08 in 10.0 mi NE 9.2 mph - N/A   Overcast
4:53 AM 41.0 °F 35.8 °F 39.2 °F 93% 30.10 in 10.0 mi NE 8.1 mph - N/A   Overcast
4:58 AM 40.8 °F 35.6 °F 39.2 °F 94% 30.12 in 10.0 mi NE 8.1 mph - 0.00 in   Overcast
5:10 AM 41.0 °F 35.2 °F 39.2 °F 93% 30.09 in 10.0 mi NE 9.2 mph - N/A   Overcast
5:12 AM 41.0 °F 35.2 °F 39.2 °F 93% 30.09 in 10.0 mi NE 9.2 mph - N/A Rain Light Rain
5:40 AM 41.0 °F 35.8 °F 39.2 °F 93% 30.08 in 10.0 mi NE 8.1 mph - N/A   Overcast
5:58 AM 40.3 °F 34.4 °F 38.5 °F 93% 30.10 in 10.0 mi NE 9.2 mph - 0.00 in   Overcast
6:08 AM 41.0 °F 34.3 °F 39.2 °F 93% 30.10 in 10.0 mi NNE 11.5 mph - N/A   Overcast
6:28 AM 41.0 °F 35.8 °F 39.2 °F 93% 30.10 in 10.0 mi NE 8.1 mph - N/A   Overcast
6:48 AM 41.0 °F 34.7 °F 37.4 °F 87% 30.11 in 10.0 mi NE 10.4 mph - N/A   Overcast
6:58 AM 40.3 °F 33.0 °F 37.9 °F 91% 30.10 in 10.0 mi NE 12.7 mph - N/A   Overcast
7:58 AM 40.5 °F 36.5 °F 38.1 °F 91% 30.15 in 10.0 mi ENE 5.8 mph - N/A   Overcast
8:58 AM 41.7 °F 35.6 °F 38.5 °F 88% 30.17 in 10.0 mi ENE 10.4 mph - N/A   Overcast
9:37 AM 42.8 °F 38.0 °F 39.2 °F 87% 30.15 in 10.0 mi ENE 8.1 mph - N/A   Overcast
9:58 AM 44.2 °F 40.3 °F 39.6 °F 84% 30.15 in 10.0 mi NE 6.9 mph - N/A   Overcast
10:58 AM 47.3 °F - 41.0 °F 79% 30.13 in 10.0 mi Variable 5.8 mph - N/A   Overcast
11:18 AM 50.0 °F - 41.0 °F 71% 30.11 in 10.0 mi NNE 5.8 mph - N/A   Scattered Clouds
11:58 AM 52.2 °F - 43.0 °F 71% 30.09 in 10.0 mi Variable 4.6 mph - N/A   Clear
12:58 PM 55.9 °F - 44.4 °F 65% 30.05 in 10.0 mi Variable 4.6 mph - N/A   Clear
1:58 PM 58.6 °F - 44.2 °F 59% 30.04 in 10.0 mi Variable 5.8 mph - N/A   Clear
2:58 PM 61.0 °F - 45.7 °F 57% 30.03 in 10.0 mi ENE 4.6 mph - N/A   Clear
3:58 PM 60.4 °F - 45.9 °F 59% 30.04 in 10.0 mi East 5.8 mph - N/A   Clear
4:58 PM 58.5 °F - 45.9 °F 63% 30.06 in 10.0 mi East 6.9 mph - N/A   Partly Cloudy
5:58 PM 55.2 °F - 45.9 °F 71% 30.07 in 10.0 mi East 3.5 mph - N/A   Clear
6:58 PM 51.6 °F - 45.9 °F 81% 30.07 in 10.0 mi NE 5.8 mph - N/A   Partly Cloudy
7:58 PM 51.8 °F - 46.8 °F 83% 30.09 in 10.0 mi ENE 4.6 mph - N/A   Clear
8:58 PM 49.8 °F - 45.9 °F 86% 30.08 in 10.0 mi NE 8.1 mph - N/A   Partly Cloudy
9:58 PM 49.3 °F - 45.1 °F 86% 30.08 in 10.0 mi ENE 8.1 mph - N/A   Scattered Clouds
10:58 PM 48.6 °F - 45.5 °F 89% 30.07 in 10.0 mi ENE 6.9 mph - N/A   Mostly Cloudy
11:58 PM 48.9 °F - 45.7 °F 89% 30.05 in 10.0 mi ENE 6.9 mph - N/A   Overcast